Miscellaneous Local Product
Issued by NWS Hastings, NE

Home | Current Version | Previous Version | Graphics & Text | Print | Product List | Glossary On
Versions: 1 2 3 4 5 6 7 8 9 10 11 12 13 14 15 16 17 18 19 20 21 22 23 24 25 26 27 28 29 30 31 32 33 34 35 36 37 38 39 40 41 42 43 44 45 46 47 48 49 50
000
AXUS43 KGID 200102
MISGRI

GID CWA HOURLY WEATHER ROUNDUP
NATIONAL WEATHER SERVICE HASTINGS NE
800 PM CDT FRI SEP 19 2014

NOTE: "FAIR" INDICATES FEW OR NO CLOUDS BELOW 12,000 FEET WITH NO
SIGNIFICANT WEATHER AND/OR OBSTRUCTIONS TO VISIBILITY.

...SOUTH CENTRAL NEBRASKA...

CITY           SKY/WX    TMP DP  RH WIND       PRES   REMARKS
GRAND ISLAND   CLEAR     78  64  61 S10       29.80S
HASTINGS       CLEAR     80  59  48 S6        29.82R
KEARNEY        CLEAR     77  61  57 S10       29.83R
ORD            CLEAR     80  62  54 S10       29.74S
YORK           CLEAR     75  66  73 S7        29.81S
AURORA         CLEAR     79  61  53 S8        29.81R
LEXINGTON      CLEAR     76  63  63 S9        29.81S
HOLDREGE       CLEAR     79  58  47 S10       29.83S
HEBRON         CLEAR     78  63  60 S5        29.83S

...NEBRASKA PANHANDLE...

CITY           SKY/WX    TMP DP  RH WIND       PRES   REMARKS
CHADRON        CLEAR     78  50  37 NW5       29.84R
ALLIANCE       CLEAR     74  53  48 NE9       29.88R
SCOTTSBLUFF    CLEAR     78  49  35 E5        29.88R
SIDNEY         NOT AVBL

...WESTERN AND NORTH CENTRAL NEBRASKA...

CITY           SKY/WX    TMP DP  RH WIND       PRES   REMARKS
VALENTINE      PTCLDY    78  55  44 NE6       29.81R
AINSWORTH      MOCLDY    76  62  61 N3        29.81S
ONEILL         PTCLDY    79  65  62 CALM      29.77R
BROKEN BOW     CLEAR     82  58  43 S7        29.78R
IMPERIAL       CLEAR     80  54  40 S7        29.83S
NORTH PLATTE   CLEAR     79  59  50 S8        29.79R
MCCOOK         CLEAR     83  60  45 S15       29.82S

...EASTERN NEBRASKA...

CITY           SKY/WX    TMP DP  RH WIND       PRES   REMARKS
NORFOLK        CLEAR     80  65  59 S9        29.74F
SO SIOUX CITY  CLEAR     79  67  66 S6        29.74S
TEKAMAH        CLEAR     78  65  63 SE9       29.76S
ALBION         CLEAR     76  63  63 S7        29.76F
OMAHA EPPLEY   PTCLDY    80  68  66 S17       29.79S
OFFUTT AFB     CLEAR     78  74  88 SE10      29.81R
MILLARD        CLEAR     80  69  70 SE6       29.79S
LINCOLN        CLEAR     79  66  64 S12       29.81R
NEBRASKA CITY    N/A     76  65  68 S13       29.85R
BEATRICE       CLEAR     80  67  64 S8        29.83S
FALLS CITY     CLEAR     75  69  81 S10       29.87R

...NORTHERN KANSAS...

CITY           SKY/WX    TMP DP  RH WIND       PRES   REMARKS
GOODLAND       CLEAR     79  60  52 S16       29.89R
HILL CITY      PTCLDY    82  59  45 S10       29.85R
NORTON         CLEAR     81  52  36 S9        29.83S
SMITH CENTER   CLEAR     79  61  53 S9        29.84S
BELOIT         CLEAR     79  63  57 S7        29.82S
HAYS           PTCLDY    79  61  53 S10       29.88R
RUSSELL        PTCLDY    77  63  61 S12       29.86R
CONCORDIA      CLEAR     78  66  66 S10       29.84S
SALINA         CLEAR     80  63  55 S7        29.87R
TOPEKA         CLEAR     75  70  84 S10       29.91S



USA.gov is the U.S. government's official web portal to all federal, state and local government web resources and services.